Regional Weather Roundup
Issued by NWS Kansas City/Pleasant Hill, MO

Home | Current Version | Previous Version | Graphics & Text | Print | Product List | Glossary Off
Versions: 1 2 3 4 5 6 7 8 9 10 11 12 13 14 15 16 17 18 19 20 21 22 23 24 25 26 27 28 29 30 31 32 33 34 35 36 37 38 39 40 41 42 43 44 45 46 47 48 49 50

000
ASUS43 KEAX 210010
RWREAX

WEATHER ROUNDUP FOR EASTERN KANSAS AND NORTHWEST MISSOURI
NATIONAL WEATHER SERVICE KANSAS CITY/PLEASANT HILL MO
600 PM CST FRI JAN 20 2017

KSZ040-057-103>105-MOZ028-029-037-043-210100-
...KANSAS CITY METROPOLITAN AREA...

CITY           SKY/WX    TMP DP  RH WIND       PRES   REMARKS
K.C. INTL      CLOUDY    49  46  90 SE6       29.46R FOG
6HR MIN TEMP:  48; 6HR MAX TEMP:  50; 6HR PCP: TRACE;

K.C. DOWNTOWN  CLOUDY    51  49  92 E6        29.46R
6HR MIN TEMP:  50; 6HR MAX TEMP:  52;

LEES SUMMIT    CLOUDY    52  47  83 S3        29.47R
6HR MIN TEMP:  48; 6HR MAX TEMP:  53;

OLATHE - IXD   CLOUDY    50  47  89 S3        29.46R
6HR MIN TEMP:  49; 6HR MAX TEMP:  53; 6HR PCP: TRACE;

OLATHE - OJC   CLOUDY    50  47  89 VRB5      29.46R
6HR MIN TEMP:  48; 6HR MAX TEMP:  52; 6HR PCP: TRACE;

LAWRENCE       CLOUDY    50  49  96 SE6       29.46R

$$

MOZ001>008-011>017-020>025-030>033-038>040-044>046-053-054-210100-
...NORTHERN AND CENTRAL MISSOURI...

CITY           SKY/WX    TMP DP  RH WIND       PRES   REMARKS
ST. JOSEPH     LGT RAIN  47  47 100 E3        29.46R FOG
6HR MIN TEMP:  46; 6HR MAX TEMP:  49; 6HR PCP:  0.02;

MOSBY          CLOUDY    50  48  93 CALM      29.47R
WARRENSBURG    CLEAR     50  45  81 CALM      29.47R
WHITEMAN AFB   CLEAR     51  51 100 SE3       29.46R
6HR MIN TEMP:  50; 6HR MAX TEMP:  56;

CLINTON        CLEAR     55  43  62 SW8       29.48R
SEDALIA        CLEAR     52  46  80 SE6       29.48R
6HR MIN TEMP:  51; 6HR MAX TEMP:  58;

WARSAW         NOT AVBL
CHILLICOTHE      N/A     48  47  96 VRB3      29.49S
6HR MIN TEMP:  45; 6HR MAX TEMP:  48;

KIRKSVILLE     CLOUDY    47  46  97 E9        29.51F FOG
6HR MIN TEMP:  45; 6HR MAX TEMP:  48;


$$

MOZ041-047>049-056>058-063>065-088>090-097-210100-
...EASTERN AND SOUTHERN MISSOURI...

CITY           SKY/WX    TMP DP  RH WIND       PRES   REMARKS
ST. LOUIS INTL MOCLDY    52  48  86 SE7       29.58R
6HR MIN TEMP:  51; 6HR MAX TEMP:  55;

SPIRIT OF STL  PTCLDY    47  47 100 CALM      29.56R
COLUMBIA       CLEAR     49  47  93 E9        29.49F
JEFFERSON CITY PTCLDY    51  46  83 SE7       29.49S
ROLLA          CLEAR     53  48  83 SE9       29.50S
OSAGE BEACH    CLEAR     57  48  72 SE6       29.49R
SPRINGFIELD    CLEAR     59  40  49 S14       29.49R
BRANSON        PTCLDY    63  39  42 SW10      29.55R
JOPLIN         CLEAR     59  39  47 S12       29.48R
WEST PLAINS    CLEAR     58  48  69 S10       29.57R

$$

IAZ060-094-KSZ022-034>040-054-083-096-NEZ052-066-093-210100-
...KANSAS...SOUTHEAST NEBRASKA AND IOWA...

CITY           SKY/WX    TMP DP  RH WIND       PRES   REMARKS
TOPEKA         CLOUDY    50  47  89 SE7       29.44R
6HR MIN TEMP:  48; 6HR MAX TEMP:  51; 6HR PCP:  0.01;

MANHATTAN      CLOUDY    48  46  93 SE3       29.43R
EMPORIA        CLOUDY    49  45  86 S5        29.44R
CHANUTE        CLEAR     56  40  55 SW17G23   29.47R
WICHITA        PTCLDY    41  39  93 S15       29.44S WCI  33
OMAHA          CLOUDY    42  38  85 E6        29.46S FOG
LINCOLN        CLOUDY    43  42  97 E8        29.43F FOG
FALLS CITY     CLOUDY    45  44  97 SE7       29.44R
LAMONI         FOG       43  43 100 E6        29.47F VSB 1/2
DES MOINES     CLOUDY    40  39  97 E9        29.52S FOG     WCI  34

$$




USA.gov is the U.S. government's official web portal to all federal, state and local government web resources and services.